Regional Weather Roundup
Issued by NWS New Orleans/Baton Rouge, LA

Home | Current Version | Previous Version | Graphics & Text | Print | Product List | Glossary On
Versions: 1 2 3 4 5 6 7 8 9 10 11 12 13 14 15 16 17 18 19 20 21 22 23 24 25 26 27 28 29 30 31 32 33 34 35 36 37 38 39 40 41 42 43 44 45 46 47 48 49 50
198
ASUS44 KLIX 201805
RWRLIX
NEW ORLEANS REGIONAL WEATHER ROUNDUP
NATIONAL WEATHER SERVICE NEW ORLEANS LA
100 PM CDT WED AUG 20 2014

NOTE: "FAIR" INDICATES FEW OR NO CLOUDS BELOW 12,000 FEET WITH NO
      SIGNIFICANT WEATHER AND/OR OBSTRUCTIONS TO VISIBILITY.
      SKY/WX - SKY CONDITION AND SIGNIFICANT WEATHER.
      TMP - AIR TEMPERATURE.     DP    - DEWPOINT TEMPERATURE.
      RH  - RELATIVE HUMIDITY.   PRES  - PRESSURE.
      HI  - HEAT INDEX.          WCI   - WIND CHILL INDEX.

*  THESE STATIONS ARE NOT NWS OR FAA STATIONS AND ARE NOT UNDER
   NWS QUALITY CONTROL.

LAZ038-040-048-061>063-065>067-069-201900-
SOUTHEAST LOUISIANA

CITY           SKY/WX    TMP DP  RH WIND       PRES   REMARKS
N.O. AUDUBON     N/A     96  76  52 MISG        N/A  HX 109
6HR MIN TEMP:  79; 6HR MAX TEMP:  99;

N.O. INTL ARPT PTSUNNY   90  77  65 VRB5      30.07F HX 103
6HR MIN TEMP:  78; 6HR MAX TEMP:  92;

N.O. LAKEFRONT MOSUNNY   90  75  61 NE12      30.08F HX 100
N.O. DOWNTOWN* MOCLDY    91  73  55 S10       30.07F HX 100
6HR MIN TEMP:  82; 6HR MAX TEMP:  95;

SLIDELL        MOSUNNY   92  73  53 CALM      30.07F HX 100
6HR MIN TEMP:  74; 6HR MAX TEMP:  93;

BATON ROUGE    PTSUNNY   90  74  59 NW3       30.06F HX  99
6HR MIN TEMP:  73; 6HR MAX TEMP:  93;

BOOTHVILLE     MOSUNNY   89  76  65 VRB7      30.10S HX 100
6HR MIN TEMP:  84; 6HR MAX TEMP:  90;

BELLE CHASSE   LGT RAIN  85  69  58 S6        30.08S
6HR MIN TEMP:  75; 6HR MAX TEMP:  92;

BOGALUSA*        N/A     92  73  52 NW3       30.09F HX 100
6HR MIN TEMP:  74; 6HR MAX TEMP:  92;

GALLIANO*      NOT AVBL
NEW ROADS*     MOCLDY    89  75  63 MISG      30.06F HX 100
6HR MIN TEMP:  71; 6HR MAX TEMP:  90;

GONZALES*        N/A     91  74  58 CALM      30.05F HX 101
6HR MIN TEMP:  73; 6HR MAX TEMP:  92;

HAMMOND*       MOSUNNY   95  70  43 SE3       30.09F HX 101
HOUMA*         LGT RAIN  79  73  83 SW10      30.07S
PORT FOURCHON* MOCLDY    90  77  66 S9        30.09F HX 102

$$

MSZ070-080>082-201900-
SOUTHERN MISSISSIPPI

CITY           SKY/WX    TMP DP  RH WIND       PRES   REMARKS
MCCOMB         PTSUNNY   90  68  48 W8        30.09F
6HR MIN TEMP:  73; 6HR MAX TEMP:  91;

GULFPORT       MOSUNNY   92  73  53 S7        30.08F HX 100
6HR MIN TEMP:  77; 6HR MAX TEMP:  92;

BILOXI         MOSUNNY   90  75  62 S9        30.09S HX 100
6HR MIN TEMP:  80; 6HR MAX TEMP:  91;

PASCAGOULA     MOSUNNY   91  73  55 S5        30.08F HX  99
6HR MIN TEMP:  74; 6HR MAX TEMP:  92;

STENNIS ARPT*  MOSUNNY  N/A N/A N/A VRB5      30.08F

$$

COASTAL OBSERVATIONS
LAKE AND NEARSHORE STATIONS

STATION/POSITION TIME  TEMP    WIND        PRES    WAVE
                       AIR SEA DIR/SP/G            HT/PER
                 (UTC) (F)     (DEG/KT/KT) (MB)    (FT/S)
PASCAGOULA       1800   90     230/  9/ 11 1018.5
WAVELAND YACHT   1800   86     140/  8/ 10 1018.3
GRAND ISLE       1800   89 87  190/  6/  9 1019.6
SOUTHWEST PASS   1800   88 89  180/  4/  6 1019.4
NEW CANAL        1800   85 84   50/ 11/ 12 1018.8
SHELL BEACH      1800   87 82  130/  6/  8 1018.7

OFFSHORE STATIONS

STATION/POSITION TIME  TEMP    WIND        PRES    WAVE
                       AIR SEA DIR/SP/G            HT/PER
                 (UTC) (F)     (DEG/KT/KT) (MB)    (FT/S)
64 S DAUPHIN ISL 1728   86 91  220/  2/  4 1019.5

$$




USA.gov is the U.S. government's official web portal to all federal, state and local government web resources and services.